Cambridge, MN

11:34 AM CST on January 20, 2018 (GMT -0600)
Cambridge Municipal

Weather History for KCBG - December, 2013

Change the Weather History Date:

Thursday, December 26, 2013

  Actual Average Record
Temperature  
Mean Temperature 16 °F -  
Max Temperature 21 °F 20 °F 46 °F (2011)
Min Temperature 10 °F 1 °F -31 °F (1990)
Degree Days  
Heating Degree Days 50    
Moisture  
Dew Point 9 °F    
Average Humidity 72    
Maximum Humidity 79    
Minimum Humidity 67    
Precipitation  
Precipitation 0.00 in - - ()
Sea Level Pressure  
Sea Level Pressure 30.08 in    
Wind  
Wind Speed 0 mph (ESE)    
Max Wind Speed 4 mph    
Max Gust Speed -    
Visibility 9 miles    
Events Snow    
Averages and records for this station are not official NWS values.
T = Trace of Precipitation, MM = Missing Value Source: NWS Daily Summary

Daily Weather History Graph

Daily Weather History Graph

Search for Another Location

Airport or City:

Trip Planner

Search our weather history database for the weather conditions in past years. The results will help you decide how hot, cold, wet, or windy it might be!

Date:

Astronomy

Dec. 26, 2013 Rise Set
Actual Time 7:52 AM CST 4:35 PM CST
Civil Twilight 7:18 AM CST 5:09 PM CST
Nautical Twilight 6:40 AM CST 5:47 PM CST
Astronomical Twilight 6:04 AM CST 6:23 PM CST
Moon 1:08 AM CST (12/26) 12:23 PM CST (12/26)
Length of Visible Light 9h 51m
Length of Day
8h 42m
Last Quarter, 38% of the Moon is Illuminated
Dec 26
Last Quarter
Jan 1
New
Jan 7
First Quarter
Jan 15
Full
Jan 23
Last Quarter

Hourly Weather History & Observations

Time (CST) Temp. Windchill Dew Point Humidity Pressure Visibility Wind Dir Wind Speed Gust Speed Precip Events Conditions
12:15 AM 10.4 °F - 3.2 °F 73% 30.07 in 10.0 mi Calm Calm - N/A Snow Light Snow
12:34 AM 12.2 °F - 3.2 °F 67% 30.06 in 10.0 mi Calm Calm - N/A Snow Light Snow
12:56 AM 12.2 °F - 3.2 °F 67% 30.06 in 10.0 mi Calm Calm - N/A   Overcast
1:15 AM 10.4 °F - 3.2 °F 73% 30.06 in 10.0 mi Calm Calm - N/A   Overcast
1:36 AM 12.2 °F - 5.0 °F 73% 30.06 in 10.0 mi Calm Calm - N/A   Overcast
1:55 AM 12.2 °F - 5.0 °F 73% 30.07 in 10.0 mi Calm Calm - N/A   Overcast
2:15 AM 14.0 °F - 6.8 °F 73% 30.07 in 10.0 mi Calm Calm - N/A   Overcast
2:35 AM 12.2 °F - 5.0 °F 73% 30.06 in 10.0 mi Calm Calm - N/A Snow Light Snow
2:56 AM 12.2 °F - 6.8 °F 79% 30.06 in 10.0 mi Calm Calm - N/A Snow Light Snow
3:15 AM 12.2 °F - 6.8 °F 79% 30.06 in 10.0 mi Calm Calm - N/A Snow Light Snow
3:35 AM 14.0 °F - 6.8 °F 73% 30.06 in 10.0 mi Calm Calm - N/A   Overcast
3:55 AM 14.0 °F - 6.8 °F 73% 30.05 in 10.0 mi Calm Calm - N/A   Overcast
4:16 AM 14.0 °F - 6.8 °F 73% 30.06 in 10.0 mi Calm Calm - N/A   Overcast
4:35 AM 15.8 °F - 6.8 °F 68% 30.06 in 10.0 mi Calm Calm - N/A   Overcast
4:56 AM 14.0 °F - 6.8 °F 73% 30.05 in 10.0 mi Calm Calm - N/A Snow Light Snow
5:15 AM 15.8 °F - 6.8 °F 68% 30.04 in 7.0 mi Calm Calm - N/A Snow Light Snow
5:36 AM 15.8 °F - 6.8 °F 68% 30.05 in 7.0 mi Calm Calm - N/A Snow Light Snow
5:55 AM 15.8 °F - 6.8 °F 68% 30.04 in 10.0 mi Calm Calm - N/A Snow Light Snow
6:16 AM 15.8 °F - 6.8 °F 68% 30.05 in 10.0 mi Calm Calm - N/A Snow Light Snow
6:35 AM 15.8 °F - 6.8 °F 68% 30.06 in 10.0 mi Calm Calm - N/A Snow Light Snow
6:56 AM 15.8 °F - 8.6 °F 73% 30.06 in 10.0 mi Calm Calm - N/A Snow Light Snow
7:15 AM 15.8 °F - 8.6 °F 73% 30.06 in 10.0 mi Calm Calm - N/A   Overcast
7:35 AM 15.8 °F - 6.8 °F 68% 30.06 in 10.0 mi Calm Calm - N/A   Overcast
7:55 AM 15.8 °F 10.2 °F 6.8 °F 68% 30.05 in 10.0 mi ESE 3.5 mph - N/A Snow Light Snow
8:16 AM 15.8 °F - 6.8 °F 68% 30.06 in 10.0 mi Calm Calm - N/A Snow Light Snow
8:35 AM 15.8 °F - 6.8 °F 68% 30.07 in 10.0 mi Calm Calm - N/A   Overcast
8:55 AM 15.8 °F - 8.6 °F 73% 30.07 in 10.0 mi Calm Calm - N/A   Overcast
9:15 AM 15.8 °F - 8.6 °F 73% 30.07 in 10.0 mi Calm Calm - N/A   Overcast
9:35 AM 15.8 °F - 8.6 °F 73% 30.08 in 10.0 mi Calm Calm - N/A Snow Light Snow
9:55 AM 15.8 °F - 8.6 °F 73% 30.08 in 7.0 mi Calm Calm - N/A Snow Light Snow
10:15 AM 17.6 °F - 8.6 °F 68% 30.09 in 10.0 mi Calm Calm - N/A Snow Light Snow
10:35 AM 17.6 °F - 8.6 °F 68% 30.09 in 10.0 mi Calm Calm - N/A Snow Light Snow
10:55 AM 17.6 °F - 10.4 °F 73% 30.09 in 10.0 mi Calm Calm - N/A Snow Light Snow
11:15 AM 17.6 °F 12.3 °F 10.4 °F 73% 30.08 in 10.0 mi ESE 3.5 mph - N/A Snow Light Snow
11:36 AM 19.4 °F - 10.4 °F 68% 30.08 in 10.0 mi Calm Calm - N/A Snow Light Snow
11:55 AM 19.4 °F - 10.4 °F 68% 30.07 in 10.0 mi Calm Calm - N/A Snow Light Snow
12:15 PM 19.4 °F - 10.4 °F 68% 30.07 in 10.0 mi Calm Calm - N/A Snow Light Snow
12:35 PM 19.4 °F - 10.4 °F 68% 30.07 in 10.0 mi Calm Calm - N/A Snow Light Snow
12:55 PM 21.2 °F - 12.2 °F 68% 30.06 in 5.0 mi Calm Calm - N/A Snow Light Snow
1:15 PM 21.2 °F - 12.2 °F 68% 30.06 in 7.0 mi Calm Calm - N/A Snow Light Snow
1:35 PM 19.4 °F - 12.2 °F 74% 30.06 in 5.0 mi Calm Calm - N/A Snow Light Snow
1:56 PM 21.2 °F - 12.2 °F 68% 30.05 in 4.0 mi Calm Calm - N/A Snow Light Snow
2:15 PM 21.2 °F - 12.2 °F 68% 30.05 in 5.0 mi Calm Calm - N/A Snow Light Snow
2:35 PM 21.2 °F - 12.2 °F 68% 30.04 in 7.0 mi Calm Calm - N/A Snow Light Snow
2:56 PM 21.2 °F - 12.2 °F 68% 30.04 in 5.0 mi Calm Calm - N/A Snow Light Snow
3:15 PM 21.2 °F - 12.2 °F 68% 30.05 in 10.0 mi Calm Calm - N/A Snow Light Snow
3:36 PM 21.2 °F - 12.2 °F 68% 30.06 in 7.0 mi Calm Calm - N/A Snow Light Snow
3:55 PM 21.2 °F - 12.2 °F 68% 30.07 in 7.0 mi Calm Calm - N/A Snow Light Snow
4:16 PM 21.2 °F - 14.0 °F 74% 30.08 in 7.0 mi Calm Calm - N/A Snow Light Snow
4:35 PM 21.2 °F - 14.0 °F 74% 30.09 in 10.0 mi Calm Calm - N/A Snow Light Snow
4:56 PM 21.2 °F - 14.0 °F 74% 30.09 in 10.0 mi Calm Calm - N/A Snow Light Snow
5:15 PM 21.2 °F - 12.2 °F 68% 30.10 in 10.0 mi Calm Calm - N/A Snow Light Snow
5:35 PM 21.2 °F - 12.2 °F 68% 30.10 in 10.0 mi Calm Calm - N/A Snow Light Snow
5:55 PM 21.2 °F - 14.0 °F 74% 30.11 in 10.0 mi Calm Calm - N/A Snow Light Snow
6:15 PM 21.2 °F - 12.2 °F 68% 30.12 in 10.0 mi Calm Calm - N/A   Overcast
6:35 PM 21.2 °F - 14.0 °F 74% 30.12 in 10.0 mi Calm Calm - N/A   Overcast
6:55 PM 21.2 °F - 14.0 °F 74% 30.12 in 10.0 mi Calm Calm - N/A   Overcast
7:16 PM 21.2 °F - 14.0 °F 74% 30.13 in 10.0 mi Calm Calm - N/A   Overcast
7:35 PM 21.2 °F - 14.0 °F 74% 30.13 in 10.0 mi Calm Calm - N/A   Overcast
7:55 PM 21.2 °F - 14.0 °F 74% 30.13 in 10.0 mi Calm Calm - N/A   Overcast
8:16 PM 21.2 °F - 14.0 °F 74% 30.13 in 10.0 mi Calm Calm - N/A   Overcast
8:35 PM 21.2 °F - 14.0 °F 74% 30.13 in 10.0 mi Calm Calm - N/A   Overcast
8:55 PM 21.2 °F - 14.0 °F 74% 30.12 in 7.0 mi Calm Calm - N/A   Overcast
9:15 PM 21.2 °F - 14.0 °F 74% 30.12 in 10.0 mi Calm Calm - N/A   Overcast
9:35 PM 21.2 °F - 14.0 °F 74% 30.12 in 7.0 mi Calm Calm - N/A   Overcast
9:56 PM 17.6 °F - 10.4 °F 73% 30.12 in 7.0 mi Calm Calm - N/A   Scattered Clouds
10:15 PM 15.8 °F - 8.6 °F 73% 30.12 in 5.0 mi Calm Calm - N/A   Haze
10:35 PM 15.8 °F - 8.6 °F 73% 30.12 in 2.5 mi Calm Calm - N/A   Haze
10:55 PM 12.2 °F - 6.8 °F 79% 30.13 in 1.8 mi Calm Calm - N/A   Haze
11:16 PM 10.4 °F - 5.0 °F 79% 30.14 in 3.0 mi Calm Calm - N/A   Haze
11:35 PM 10.4 °F - 5.0 °F 79% 30.13 in 2.5 mi Calm Calm - N/A   Haze
11:56 PM 10.4 °F - 3.2 °F 73% 30.13 in 0.2 mi Calm Calm - N/A   Haze